Wind_Speed
8 6 5 3 4 6 7 5 1 1 2 5 5 8 10 8 7 5 5 3 3 4 5 6 7 8 9 1 9 11 9 9 8 8 9 10 12 15
7 7 10 8 8 7 8 7 6 4 2 3 5 6 10 10 9 6 5 3 2 3 3 4 5 6 8 5 5 7 6 7 7 7 8 12 14 13
11 11 11 10 10 8 7 6 7 7 5 4 5 6 9 10 10 8 6 5 2 3 4 4 4 5 4 4 3 3 4 4 5 6 8 8 10 13
9 9 9 8 9 9 8 9 9 9 7 7 6 9 9 11 11 11 8 6 4 3 3 4 4 4 4 3 2 0 2 3 4 4 4 5 6 7
10 10 9 9 10 10 10 11 11 11 11 10 9 8 9 10 12 14 12 11 7 5 3 2 2 3 4 4 4 2 1 2 2 2 3 3 4 5
12 11 10 11 11 11 11 12 12 12 13 12 12 9 8 9 13 15 15 15 10 9 6 4 2 1 1 2 4 4 4 3 3 2 1 2 2 4
14 14 13 11 10 11 13 13 11 11 9 10 10 6 7 9 13 11 17 16 15 15 12 9 5 3 2 0 2 3 3 3 3 3 4 4 5 5
17 17 13 13 13 12 10 8 10 11 13 11 11 10 11 10 12 12 11 9 6 14 16 15 11 7 4 3 2 2 1 2 2 3 4 4 4 4
12 10 11 12 12 12 12 10 10 10 11 12 13 13 10 10 8 7 9 8 5 5 13 10 13 9 5 4 3 2 2 2 2 1 2 3 3 3
9 8 9 10 10 9 7 7 7 7 7 6 6 5 4 6 8 5 3 2 1 1 9 2 7 9 7 4 2 1 3 3 4 3 4 7 8 9
6 6 6 5 4 4 6 6 4 1 3 3 6 7 6 7 7 0 2 3 1 1 1 3 1 3 3 2 3 4 4 3 4 2 4 5 5 6
2 1 0 1 2 4 2 6 7 5 5 6 7 8 8 9 8 10 7 4 1 0 4 1 2 3 3 4 10 8 2 5 8 8 7 5 5 4
2 1 2 1 2 3 4 5 4 5 5 6 7 9 11 12 13 13 11 9 6 4 4 2 2 3 1 1 5 11 11 10 9 7 5 7 9 7
5 5 7 7 7 7 6 6 4 5 5 6 7 9 10 12 11 11 11 9 9 8 7 6 3 4 3 1 3 5 10 13 12 9 9 8 8 11
10 12 12 11 11 11 11 9 8 8 8 8 8 9 9 10 10 9 10 8 6 6 7 7 6 5 4 6 6 8 9 12 17 15 14 12 10 10
13 12 11 11 11 12 13 13 12 11 10 10 9 9 8 9 10 11 13 11 9 6 6 8 8 8 9 10 10 15 16 8 9 19 15 15 14 13
10 11 10 10 12 13 13 13 13 12 14 13 12 11 9 8 9 9 9 8 9 9 6 7 9 7 7 11 6 8 5 5 8 14 14 15 15 17
9 9 8 7 8 10 10 10 11 11 10 10 11 11 12 12 10 10 10 11 10 8 8 9 10 8 6 3 12 10 5 2 4 6 5 5 7 8
11 9 8 8 7 6 6 7 9 10 12 10 11 11 10 12 11 10 8 8 9 10 9 8 8 8 5 3 6 10 9 6 1 2 2 2 3 4
8 9 8 7 7 6 7 7 9 8 8 7 7 7 7 9 10 9 8 8 8 8 8 5 6 8 5 3 5 9 8 6 5 4 5 6 7 9
4 8 8 8 6 6 6 6 6 6 4 4 4 4 4 5 8 7 6 5 6 7 7 6 5 6 7 6 7 9 7 6 6 6 6 7 7 5
4 4 6 9 7 6 6 6 5 5 5 3 2 1 2 3 4 4 6 6 5 6 7 8 7 8 7 6 8 11 13 9 8 6 7 7 6 3
9 8 7 7 11 10 9 7 7 6 5 5 8 6 4 5 5 5 5 6 7 8 8 9 8 8 9 10 9 13 14 13 11 13 10 7 8 11
Wind_Direction
272 281 288 300 242 260 258 305 266 310 291 242 232 242 225 244 276 268 270 288 327 12 3 352 354 6 9 112 188 201 206 229 239 240 241 238 240 245
280 291 278 270 270 266 268 289 275 245 244 255 244 227 232 254 264 245 261 246 321 10 23 18 11 18 34 64 150 189 211 216 217 231 242 246 249 247
277 270 280 279 285 288 271 274 276 272 249 283 250 236 238 243 246 237 237 243 302 352 5 7 21 30 37 67 107 170 212 238 252 257 261 254 249 245
275 283 283 282 287 288 279 283 275 278 274 269 274 250 244 248 250 242 235 234 242 276 339 6 29 41 46 57 59 318 250 246 251 266 266 263 257 250
282 285 291 290 290 289 283 287 284 285 274 264 271 266 239 260 242 232 234 231 238 251 279 354 26 40 40 52 65 54 33 313 292 278 269 262 262 257
277 279 283 291 294 293 287 285 276 275 279 269 269 261 246 259 240 233 234 232 237 236 243 269 319 41 53 45 49 39 23 13 15 18 346 301 281 264
271 266 266 274 280 283 287 291 289 281 275 256 252 242 234 228 230 245 242 243 246 238 244 233 223 202 176 149 52 57 51 52 61 85 81 72 75 85
270 262 252 261 273 280 275 281 281 280 280 271 264 250 254 245 240 243 241 200 224 240 232 232 229 223 199 181 132 104 84 77 69 83 102 99 91 75
258 258 254 258 270 278 284 280 282 274 269 268 273 269 264 257 257 263 242 239 230 261 219 245 227 224 219 205 190 163 96 92 96 69 80 77 84 82
249 248 257 273 284 287 276 272 273 271 272 275 265 268 294 294 272 259 278 259 222 257 195 246 226 221 231 217 211 133 89 78 50 31 87 93 94 92
253 264 267 277 292 301 277 255 227 156 109 124 110 94 66 43 43 43 43 197 161 139 244 236 152 200 210 219 247 209 148 118 105 134 87 84 81 94
186 109 14 315 331 9 256 198 161 147 116 93 77 68 46 37 36 40 33 50 135 129 17 67 134 167 147 215 228 232 213 219 187 195 170 181 231 184
166 103 55 70 71 73 89 118 138 162 135 91 57 51 40 34 37 35 34 30 23 50 39 35 139 141 142 125 237 231 226 224 238 247 183 187 224 237
119 93 87 82 78 74 88 98 129 140 126 90 68 57 58 56 55 53 46 46 56 66 60 52 48 19 7 280 260 236 248 254 244 238 213 204 217 236
118 108 96 85 80 84 83 91 101 111 108 93 74 55 52 52 48 35 27 38 43 54 53 40 21 8 326 278 278 277 267 266 250 227 231 233 231 245
112 99 93 92 91 94 95 93 95 97 94 89 84 80 78 52 56 48 42 35 38 49 41 37 29 21 7 348 303 297 288 253 276 220 225 236 240 244
114 111 106 100 94 88 87 89 90 90 89 87 86 85 70 48 34 26 23 24 38 33 47 30 17 357 355 16 354 349 318 245 275 230 226 247 258 257
118 112 107 100 101 103 100 95 90 85 84 81 80 75 69 59 49 49 47 53 47 26 18 11 6 7 354 341 23 20 32 79 145 167 204 242 275 268
117 117 117 124 123 112 106 111 101 92 97 91 85 75 63 46 37 41 47 58 49 33 25 22 25 30 31 354 3 19 18 30 105 110 67 351 315 311
128 132 136 137 132 130 117 111 112 107 96 83 79 67 55 41 35 46 51 48 34 19 17 24 30 33 23 319 312 321 334 333 336 333 334 325 311 302
165 190 168 153 141 124 127 126 117 120 111 95 100 85 65 46 38 42 37 36 21 9 355 359 1 353 348 345 353 356 352 335 308 305 316 327 334 331
146 119 178 187 181 168 144 155 172 193 219 235 225 267 15 6 17 25 24 13 351 336 335 341 328 320 333 338 326 324 330 336 336 304 290 282 276 280
118 133 117 157 191 200 206 209 226 236 253 254 239 243 271 295 302 302 306 305 317 325 326 321 326 317 317 319 325 328 329 317 319 325 322 314 291 283
Height
841 840 839 840 840 840 839 837 836 838 836 831 832 832 832 833 832 832 831 830 827 825 823 822 820 817 814 812 813 815 817 820 822 822 823 824 825 826
839 838 839 840 839 838 837 836 835 834 836 831 831 831 831 831 831 831 831 830 827 825 823 822 820 817 815 815 814 817 818 818 818 819 820 821 823 824
838 838 838 838 837 836 835 834 834 833 833 830 830 830 829 829 829 830 829 829 828 827 825 823 822 819 818 817 817 816 817 818 819 818 818 818 818 819
838 837 837 836 835 834 833 833 833 833 832 830 829 828 828 827 828 828 828 827 827 826 825 824 823 821 820 819 818 818 818 818 817 817 817 817 817 816
834 834 833 833 833 832 831 831 831 831 830 829 827 827 826 825 825 826 826 826 826 826 826 825 824 823 822 820 818 817 817 817 817 816 816 815 815 815
831 831 831 831 830 830 829 829 828 827 827 826 826 825 824 823 823 823 824 824 825 825 825 825 826 825 823 822 820 819 818 818 817 816 815 815 815 815
828 828 828 828 829 828 827 827 826 825 823 823 823 822 821 821 820 819 820 821 822 823 824 824 824 824 823 822 821 820 820 819 818 816 816 817 816 815
824 824 825 826 825 826 825 824 824 824 823 821 820 819 818 818 817 817 817 818 820 819 819 822 823 822 821 821 821 821 821 821 821 820 818 817 818 819
822 822 822 822 823 823 823 822 821 820 820 819 818 817 816 815 815 815 816 816 815 815 817 818 820 821 822 821 821 822 822 822 822 821 820 819 820 820
819 820 820 821 821 820 820 819 819 818 817 817 816 816 816 814 814 813 813 813 814 814 815 817 818 820 822 822 823 824 823 824 824 824 822 821 820 820
818 818 818 819 818 818 819 818 817 817 818 818 818 818 817 816 814 814 813 814 814 815 814 815 817 819 820 821 821 823 823 824 824 828 825 824 826 824
816 817 818 818 818 817 816 817 817 818 819 819 820 820 819 817 816 815 815 814 814 816 818 818 818 819 820 820 820 820 823 827 825 826 825 827 829 827
817 817 818 819 819 819 818 818 819 820 820 821 821 821 821 820 820 819 819 819 819 818 818 819 819 819 820 821 821 822 821 820 822 824 824 826 829 830
817 819 819 820 820 820 820 820 820 821 822 823 823 823 822 821 822 822 822 822 821 821 820 820 821 822 823 823 822 821 821 821 822 825 825 825 824 826
819 820 821 822 823 822 823 823 823 824 824 824 825 826 827 827 826 826 825 823 823 823 822 823 824 823 821 821 820 819 819 819 819 820 824 825 824 825
822 822 822 824 825 825 825 825 825 826 826 826 827 828 829 830 829 828 827 826 824 825 825 824 824 823 823 821 820 817 817 818 815 818 822 824 824 824
824 824 826 828 828 828 829 830 830 828 828 829 830 830 830 830 830 829 828 827 828 827 826 826 825 824 824 822 819 817 815 817 817 817 819 821 821 821
827 827 828 830 831 831 831 833 833 833 833 833 832 833 832 831 831 831 830 829 829 830 829 827 826 825 823 822 821 818 817 817 817 817 818 820 819 819
827 829 830 833 835 836 836 835 835 835 835 836 836 835 835 835 833 832 831 831 831 831 830 829 829 827 825 825 822 821 820 818 818 818 817 819 817 817
830 831 833 836 836 837 837 838 837 837 837 839 839 838 837 836 835 833 833 833 832 832 831 831 829 827 826 826 823 819 820 820 819 818 816 816 816 814
832 833 834 835 838 838 838 839 840 840 840 841 839 839 839 838 836 834 833 833 834 833 833 830 829 827 826 825 823 821 820 819 820 818 817 816 815 813
831 831 834 835 838 841 839 840 840 840 841 842 840 840 838 838 837 836 834 833 834 834 832 831 829 828 827 825 824 822 819 818 819 817 816 816 815 814
832 832 834 834 837 838 840 840 840 840 840 839 837 838 837 837 837 837 836 836 834 832 830 830 829 827 825 824 822 821 818 816 816 814 813 812 811 810